COSMOS 1933

Last updated on Sun Jun 21 2026 00:02:15 GMT+0000 (Coordinated Universal Time)

1 18958U 88020A 26171.39774882 .00002844 00000+0 13551-3 0 9999 2 18958 82.5126 149.2557 0003875 174.6277 185.4999 15.18731354 65810
UTC large
Height (km)
Speed (km/s)
/
Latitude / Longitude
Inclination (degrees)
Orbital Period (minutes)
Azimuth
Elevation
Range (km)
Doppler Factor

Next 0 passes for location: London (51.5072 / 0.1276)

No passes found over London.
COSMOS 1933